Location: Ay?beleni
(36.6500°N, 30.3000°E)
Time: 10:55:19
(UTC+00:00)

Envisat - Pass Details

Date: 05 August 2021
Orbit: 764 x 766 km, 98.2° (Epoch: 22 September)

Event Time Altitude Azimuth Distance (km) Brightness Sun altitude
Rises 02:16:58 0° 28° (NNE) 3,237 7.3 -10.0°
Reaches altitude 10° 02:19:45 10° 42° (NE) 2,306 6.8 -9.5°
Maximum altitude 02:23:45 23° 95° (E) 1,579 5.4 -8.8°
Drops below altitude 10° 02:27:43 10° 147° (SSE) 2,293 5.5 -8.1°
Sets 02:30:27 0° 161° (SSE) 3,214 6.1 -7.7°
